Regional Weather Roundup
Issued by NWS Sioux Falls, SD

Home | Current Version | Previous Version | Text Only | Print | Product List | Glossary On
Versions: 1 2 3 4 5 6 7 8 9 10 11 12 13 14 15 16 17 18 19 20 21 22 23 24 25 26 27 28 29 30 31 32 33 34 35 36 37 38 39 40 41 42 43 44 45 46 47 48 49 50
834
ASUS43 KFSD 281610
RWRFSD

WEATHER ROUNDUP FOR SE SOUTH DAKOTA/SW MINNESOTA/NW IOWA
NATIONAL WEATHER SERVICE SIOUX FALLS SD
1100 AM CDT WED JUN 28 2017

NOTE: "FAIR" INDICATES FEW OR NO CLOUDS BELOW 12,000 FEET WITH NO
SIGNIFICANT WEATHER AND OR OBSTRUCTIONS TO VISIBILITY.


SDZ038>040-050-052>070-281700-
SOUTHEAST SOUTH DAKOTA

CITY           SKY/WX    TMP DP  RH WIND       PRES   REMARKS
BROOKINGS      CLOUDY    74  64  71 W15       29.58F
CHAMBERLAIN    SUNNY     78  62  56 NW16      29.66S
HURON          MOSUNNY   76  63  64 NW16      29.58F
MADISON        FAIR      72  66  83 W17       29.61S
MITCHELL       PTSUNNY   78  62  57 NW13      29.61S
SIOUX FALLS    CLOUDY    74  66  76 SW9       29.61F
WINNER         FAIR      80  58  46 NW16G23   29.69F
YANKTON        SUNNY     76  62  62 W8        29.64F
$$

MNZ071-072-080-081-089-090-097-098-281700-
SOUTHWEST MINNESOTA

CITY           SKY/WX    TMP DP  RH WIND       PRES   REMARKS
FAIRMONT       CLOUDY    76  66  71 SW20G29   29.62F
JACKSON        CLOUDY    73  64  73 SW18G28   29.63F
LUVERNE        PTSUNNY   70  61  73 SW15      29.62F
MARSHALL       CLOUDY    73  63  70 SW20G26   29.53F
MONTEVIDEO     CLOUDY    72  70  94 W12G21    29.51S
PIPESTONE      MOSUNNY   70  64  83 SW13      29.60F
REDWOOD FALLS  CLOUDY    71  64  78 SW18G25   29.53F
TRACY          CLOUDY    73  66  78 SW17G23   29.56F
WINDOM         CLOUDY    75  64  69 SW15G25   29.59F
WORTHINGTON    MOSUNNY   74  64  71 SW20      29.61F
$$

IAZ001>003-012>014-020>022-031-032-NEZ013-014-SDZ071-281700-
NORTHWEST IOWA

CITY           SKY/WX    TMP DP  RH WIND       PRES   REMARKS
CHEROKEE       CLOUDY    71  69  91 SW14G21   29.66F
DENISON          N/A     75  68  78 SW14G28   29.70S
ESTHERVILLE    MOSUNNY   74  68  81 SW26G36   29.63R
LE MARS        CLOUDY    77  68  73 SW18G24   29.65S
ORANGE CITY    CLOUDY    75  68  78 SW16G24   29.64F
SHELDON        CLOUDY    75  66  73 SW18G25   29.62F
SIOUX CITY     CLOUDY    73  69  87 SW7       29.65F
SPENCER        CLOUDY    75  67  76 SW21G32   29.65R
STORM LAKE     DRIZZLE   70  68  94 SW13G22   29.68S
$$

ABBREVIATIONS USED IN REMARKS
   TC - TEMPERATURE IN CELSIUS
  WCI - WIND CHILL INDEX
   HX - HEAT INDEX
  VSB - VISIBILITY





USA.gov is the U.S. government's official web portal to all federal, state and local government web resources and services.